Вернуться в каталог

STARLINK-34996

АктивенСвязьVLEO
NORAD 65223·PAYLOAD·🇺🇸 United States

Запущен Aug 14, 2025 с Cape Canaveral Space Force Station

Loading…

Ближайшие Пролёты (ближайшие 24 часа)

TLE

СвежийSource: CelesTrak SupGP

Эпоха: Sep 14, 2026, 22:27 UTC

1 65223C 25176AB  26257.93590278 -.00005791  00000+0 -17116-3 0  2573
2 65223  53.1600 350.0176 0001043  92.7049  18.6013 15.34384257    18

Отслеживайте STARLINK-34996 в реальном времени с AllMySat

Download on the App Store